Temperature
19 19 18 18 18 17 17 17 17 16 15 15 14 14 13 13 13 12 12 12 11 11 10 10 10 9 9 9 9 8 9 9 9 8 8 9 9 9 9 8 8 8 8
19 19 18 18 18 18 18 17 17 16 16 16 16 15 14 13 13 13 12 12 11 11 10 10 10 10 9 9 9 9 9 8 8 8 8 8 8 9 9 8 8 8 7
20 19 18 18 18 18 18 18 18 17 17 16 15 14 12 12 12 12 12 12 11 11 11 10 10 10 9 9 9 9 9 8 8 8 8 8 9 8 8 8 8 8 7
19 19 19 18 19 19 19 18 18 17 17 16 15 14 13 13 14 14 13 13 12 11 11 10 10 10 10 9 9 9 9 8 8 8 8 8 8 7 7 7 8 7 7
18 19 19 18 19 19 19 19 18 17 16 16 15 15 14 14 14 13 13 12 12 11 11 10 10 10 10 9 9 9 9 9 8 8 8 8 8 8 7 7 7 7 7
18 18 18 18 19 19 19 19 18 17 16 16 15 15 15 14 13 13 13 12 12 11 11 11 10 10 10 9 9 9 9 9 8 8 8 8 8 7 7 6 6 6 6
17 17 18 18 18 18 19 18 18 17 17 16 15 15 15 14 13 13 13 12 12 12 11 11 10 10 10 9 9 9 9 9 8 8 8 8 7 7 7 6 6 6 6
17 17 18 18 18 18 18 18 18 17 17 16 16 15 14 13 13 12 12 12 12 12 12 11 10 10 10 9 9 9 9 8 8 8 8 8 7 7 7 6 5 5 5
16 17 17 18 18 18 18 18 18 17 17 16 15 15 14 13 12 12 12 12 12 12 11 11 10 10 10 9 9 9 9 8 8 8 8 7 7 7 6 6 5 4 4
16 16 17 17 17 17 18 18 17 17 17 16 15 14 14 13 12 12 11 11 11 11 11 11 10 10 10 9 9 9 9 8 8 8 7 7 7 6 6 5 5 4 4
16 16 17 17 17 17 17 17 17 16 16 15 14 14 13 12 12 11 11 11 11 11 11 11 10 10 10 9 9 9 8 8 8 7 7 7 6 6 5 5 5 4 4
16 16 16 16 16 16 16 16 16 16 15 15 14 13 13 12 11 11 11 11 11 10 10 10 10 10 9 9 9 9 8 8 7 7 7 6 6 5 5 4 4 4 3
15 15 16 16 16 16 16 16 15 15 15 14 14 13 12 12 11 11 11 10 10 10 10 10 10 9 9 9 9 8 8 8 7 7 6 6 5 5 4 4 3 3 2
14 15 15 16 16 16 16 15 15 15 14 14 13 13 12 12 11 11 10 10 10 10 10 10 9 9 9 9 8 8 8 7 7 6 6 5 5 4 4 3 3 2 2
14 14 15 15 15 15 15 15 15 14 14 13 13 13 12 11 11 11 10 10 10 10 9 9 9 9 8 8 8 8 7 7 6 6 5 5 4 4 3 3 2 2 1
14 14 15 15 15 15 15 15 15 14 14 13 13 12 12 11 11 10 10 10 9 9 9 9 8 8 8 8 7 7 7 6 6 5 5 4 4 3 3 2 2 1 0
14 14 15 15 16 16 16 15 15 14 14 13 12 12 11 11 11 10 10 9 9 9 8 8 8 8 7 7 7 6 6 6 5 5 4 4 3 3 2 1 1 0 -0
15 15 15 15 16 16 16 15 15 14 14 13 12 12 11 11 10 10 9 9 9 8 8 8 7 7 7 7 6 6 5 5 4 4 3 3 2 2 1 1 -0 -1 -1
16 16 16 16 16 16 15 15 14 14 13 13 12 12 11 11 10 10 9 9 8 8 7 7 7 7 6 6 6 5 5 4 4 3 3 2 1 1 0 -0 -1 -2 -2
15 15 16 16 16 15 15 15 14 14 14 13 12 12 11 11 10 9 9 8 8 7 7 7 6 6 6 5 5 5 4 3 3 2 2 1 1 -0 -1 -1 -2 -3 -3
15 15 15 15 16 15 15 15 14 14 14 13 12 11 11 10 9 9 8 8 7 7 7 6 6 5 5 5 4 4 3 3 2 2 1 0 -0 -1 -2 -2 -3 -4 -4
14 15 15 15 15 15 15 15 14 14 13 12 12 11 10 10 9 8 8 7 7 6 6 6 5 5 4 4 4 3 2 2 1 1 0 -1 -1 -2 -2 -3 -4 -4 -5
13 14 14 14 15 15 15 15 14 14 13 12 11 10 10 9 8 8 8 7 6 6 6 5 5 4 4 3 3 2 2 1 1 -0 -1 -1 -2 -3 -3 -4 -4 -5 -6
12 13 13 14 14 14 14 14 14 13 12 11 11 10 9 8 8 7 7 7 6 6 5 5 4 4 3 3 2 1 1 0 -0 -1 -2 -2 -3 -3 -4 -4 -5 -6 -6
11 12 13 13 14 14 13 13 13 13 12 11 10 9 9 8 7 7 6 6 6 5 5 4 4 3 3 2 2 1 0 -0 -1 -2 -2 -3 -4 -4 -5 -5 -6 -7 -7
11 11 12 13 13 13 13 13 12 12 12 11 10 9 8 8 7 7 6 5 5 4 4 4 3 3 2 2 1 0 -0 -1 -2 -2 -3 -4 -5 -5 -6 -6 -7 -7 -8
Wind_Speed
19 18 19 19 19 20 21 22 22 21 18 16 15 15 14 13 12 13 16 17 17 17 14 10 10 9 8 8 8 6 5 4 3 2 2 3 3 3 3 3 4 4 3
18 16 17 18 20 21 22 23 23 23 22 18 17 15 14 12 12 12 14 18 18 17 15 13 10 10 9 9 9 8 5 4 4 3 3 3 3 4 4 4 4 4 4
21 19 18 19 19 21 23 22 24 24 24 21 15 12 11 10 11 13 13 16 18 18 17 16 13 11 10 9 10 10 9 6 5 5 4 3 3 1 4 5 5 5 5
21 19 18 19 20 21 21 22 23 24 24 22 19 20 16 15 17 14 14 15 18 18 17 16 15 12 10 10 10 10 8 7 6 5 4 5 3 3 3 4 6 6 6
20 19 18 18 18 18 18 20 22 23 23 23 22 21 19 16 14 14 15 15 15 16 17 16 14 13 11 11 11 10 10 8 7 5 4 5 4 6 5 6 5 5 6
18 17 15 14 14 14 16 17 20 22 22 23 23 23 22 19 17 17 15 14 12 13 16 15 14 13 11 12 11 11 11 9 9 7 6 5 4 5 6 7 7 7 5
16 16 15 15 14 15 16 17 20 21 22 23 23 23 22 21 19 17 16 15 12 12 15 14 14 13 12 11 11 10 11 10 10 9 7 7 7 5 5 6 7 7 6
14 14 14 14 14 15 16 17 19 20 21 22 22 21 21 16 14 16 14 15 13 13 15 15 14 14 13 11 11 9 9 8 9 9 8 6 6 5 6 5 6 7 7
14 13 12 12 13 14 15 17 18 19 20 21 20 19 19 17 16 16 15 13 12 11 14 14 14 13 12 12 11 9 9 9 9 8 8 7 5 5 5 5 5 5 7
13 12 11 11 11 12 13 14 16 17 18 18 17 15 17 17 15 14 15 14 13 12 13 13 13 12 11 11 10 9 8 9 8 7 8 7 5 5 5 5 5 6 7
13 11 10 10 10 10 12 13 14 14 15 16 16 16 15 15 15 13 14 13 12 12 12 12 12 12 11 11 10 9 9 9 8 7 8 8 6 5 5 5 5 6 7
10 10 10 10 11 11 12 12 13 13 14 14 15 15 14 14 14 13 13 12 12 11 11 11 11 11 10 10 10 10 9 9 9 8 8 7 5 6 5 5 7 7 7
10 9 9 10 11 11 11 12 12 13 13 13 14 14 14 14 14 13 12 11 11 11 10 10 10 10 10 9 9 9 9 8 8 7 7 6 6 7 6 6 6 6 6
10 10 10 10 11 11 11 12 12 12 13 13 13 14 14 13 13 12 11 11 11 10 10 9 9 9 8 8 8 8 7 7 6 6 6 6 6 7 6 5 6 6 6
10 11 11 11 11 11 11 12 12 12 13 13 13 13 12 12 11 11 11 10 10 9 9 9 8 8 7 7 8 7 7 6 5 5 5 5 5 5 5 4 5 5 5
11 11 11 12 12 13 13 13 13 13 13 13 13 12 12 12 11 11 11 10 10 9 9 9 8 8 6 8 10 8 7 6 5 5 4 3 4 5 6 7 7 6 6
11 12 12 12 12 13 14 14 14 14 14 13 13 13 12 12 11 11 11 11 10 10 9 9 8 8 7 9 10 8 6 5 4 4 3 2 2 4 4 5 6 7 8
9 10 11 11 11 12 12 13 14 14 14 14 13 13 13 13 12 12 11 11 10 9 9 8 8 7 7 9 9 9 5 4 3 3 3 2 2 2 2 3 5 6 6
9 10 10 10 11 12 14 14 14 14 14 14 14 14 14 14 13 13 12 11 10 9 8 8 8 7 7 8 9 8 4 3 3 2 1 1 1 1 3 3 4 6 6
9 8 8 9 11 13 15 16 16 16 16 15 14 14 14 14 14 13 12 10 10 9 9 8 7 7 7 8 9 7 4 4 3 2 1 0 1 2 2 3 4 5 6
10 8 9 10 11 13 16 16 16 16 15 14 14 14 14 14 14 12 11 11 10 10 9 9 7 6 6 8 8 7 3 3 3 2 1 0 1 2 3 4 4 6 7
9 9 9 10 11 14 16 16 15 14 15 15 15 14 14 12 11 13 12 11 11 11 10 9 7 5 5 6 7 7 4 3 2 1 1 0 1 2 3 3 5 7 7
9 9 10 10 11 13 15 17 15 16 17 16 16 15 14 12 12 13 13 11 10 8 8 7 7 5 5 5 7 7 5 4 2 2 2 2 1 2 2 3 5 5 4
9 9 10 11 11 12 13 14 17 18 18 18 16 15 14 13 11 9 9 9 9 8 8 7 7 6 5 5 4 4 4 4 3 2 3 2 1 1 3 3 3 3 4
8 10 12 12 13 13 13 15 18 19 19 18 16 15 13 13 11 9 7 7 7 7 8 7 7 7 6 5 6 4 3 3 2 2 1 0 1 1 2 3 3 3 4
9 10 11 12 13 14 15 16 18 19 20 17 15 13 12 11 11 11 9 11 9 11 10 9 8 6 7 10 8 7 6 5 5 2 1 1 1 2 3 3 4 4 4
Wind_Direction
227 221 216 210 204 201 199 196 195 195 192 191 193 195 198 198 200 203 203 200 200 199 201 201 198 196 202 204 205 204 202 207 207 229 246 226 218 222 212 217 218 210 217
225 218 213 208 204 202 200 199 198 195 194 195 196 198 197 199 200 200 205 204 204 201 201 204 199 198 202 204 202 201 206 201 206 233 256 250 217 208 215 221 227 229 226
228 220 212 207 204 203 202 200 199 197 196 195 193 191 191 193 197 201 203 205 205 204 203 205 203 201 202 204 203 202 207 209 205 225 241 255 263 248 207 221 227 231 238
229 226 218 210 206 205 202 202 200 198 196 193 192 189 192 197 201 200 200 202 204 205 205 205 204 202 203 206 204 204 210 211 211 207 231 252 275 258 260 222 227 236 247
225 224 220 214 209 204 200 200 199 198 195 194 195 195 200 203 199 197 198 199 202 205 204 203 202 202 204 208 203 201 207 210 215 207 203 219 233 245 254 268 256 244 243
221 221 217 210 205 199 197 196 197 197 195 194 196 199 201 200 195 194 195 196 198 201 203 202 203 203 204 205 203 201 206 210 214 211 208 209 216 225 235 257 269 270 262
213 211 208 203 198 193 192 192 193 195 194 195 198 201 203 201 199 195 196 194 196 199 201 200 203 203 204 203 199 200 205 209 211 213 218 223 231 234 238 254 269 275 275
210 208 204 200 196 191 189 189 191 192 192 194 197 200 202 201 202 200 197 197 199 201 199 199 203 203 201 198 197 200 203 205 211 217 217 221 227 224 228 243 261 273 272
207 204 200 198 195 190 189 188 187 189 190 193 195 198 198 199 199 198 198 198 199 197 197 196 200 200 198 196 194 201 200 202 209 212 213 217 222 222 227 232 237 251 275
204 199 197 195 193 189 185 185 185 186 187 189 191 193 195 197 196 194 196 196 196 193 192 194 195 195 194 193 193 200 201 202 206 205 210 216 218 218 218 223 233 241 256
198 194 189 185 180 176 176 177 180 180 182 185 187 189 191 192 192 193 195 195 194 190 189 190 188 188 190 190 191 197 196 203 206 204 211 216 214 216 219 222 230 237 243
189 182 176 172 171 172 172 173 176 177 178 179 181 183 184 185 188 190 191 190 189 185 185 184 183 185 186 189 194 198 197 202 206 206 209 213 208 220 224 226 234 241 244
174 170 169 172 172 170 170 170 172 172 172 173 175 176 178 180 184 184 183 183 182 178 179 179 182 183 185 188 196 198 197 200 203 205 206 208 209 223 228 233 242 249 254
170 170 171 171 170 168 168 168 167 167 166 168 171 174 176 178 178 177 176 176 176 175 175 176 178 177 178 182 187 188 188 193 198 200 207 209 213 228 235 239 247 254 260
175 175 174 171 169 167 167 166 165 165 165 166 168 170 169 168 166 166 166 166 167 168 167 166 167 166 167 175 175 176 178 183 187 195 208 213 221 235 240 246 253 257 264
183 181 177 175 174 172 170 168 166 166 165 166 165 162 160 159 160 160 158 158 158 158 157 161 162 162 165 170 174 174 178 182 188 195 206 211 219 233 242 251 258 266 270
188 189 189 186 181 177 173 171 167 163 164 164 162 161 159 157 157 154 155 156 157 154 155 157 158 160 156 160 168 172 173 177 183 188 192 201 225 236 255 253 258 262 266
196 196 195 189 182 173 168 163 161 163 164 163 163 162 160 158 156 156 156 156 155 153 152 153 154 148 145 157 163 163 166 163 165 172 184 203 224 243 266 266 273 277 277
208 202 197 186 176 171 165 160 162 163 165 167 166 165 162 159 157 158 156 153 149 146 144 145 147 145 140 148 152 155 154 153 150 143 154 201 240 283 291 284 285 290 293
220 202 187 178 173 171 164 163 166 168 171 170 166 163 162 160 159 155 150 146 143 139 134 130 136 137 136 141 147 152 149 153 147 143 147 142 308 307 297 292 293 296 301
221 197 181 181 177 169 166 169 170 174 168 159 156 156 157 157 153 148 145 142 137 134 130 127 125 126 126 136 140 143 147 152 154 155 171 167 324 309 301 301 301 308 309
214 195 186 182 173 170 170 171 173 163 153 151 150 151 151 146 146 143 141 141 139 136 134 131 125 121 124 128 138 138 126 133 148 155 167 45 358 317 304 304 320 319 313
212 195 186 176 172 175 175 170 163 153 150 148 147 145 143 143 146 145 143 142 143 142 142 141 139 133 130 130 134 138 131 133 128 116 91 67 22 309 300 320 328 324 319
213 191 180 176 174 175 175 164 154 153 150 147 145 143 142 140 139 138 143 146 149 148 147 147 145 142 142 142 147 148 139 132 118 110 104 91 63 354 337 328 326 326 323
204 189 185 180 173 167 163 156 154 152 148 145 143 142 141 138 135 130 129 138 139 149 150 151 150 151 153 151 147 145 146 148 132 119 99 18 329 324 327 325 323 321 320
195 187 182 172 164 160 157 158 157 154 148 146 146 144 142 139 135 128 110 84 103 108 108 118 128 127 131 139 136 127 123 122 132 135 175 257 299 311 316 316 317 316 317
Height
1461 1464 1467 1470 1473 1477 1480 1484 1488 1492 1496 1500 1503 1506 1510 1513 1517 1520 1523 1526 1529 1531 1533 1535 1537 1539 1540 1542 1543 1544 1544 1544 1545 1545 1544 1543 1542 1542 1541 1540 1540 1539 1538
1454 1456 1459 1462 1466 1469 1473 1477 1481 1485 1489 1493 1497 1501 1505 1509 1512 1516 1519 1522 1525 1527 1530 1532 1534 1536 1538 1539 1540 1541 1542 1542 1543 1543 1543 1543 1543 1539 1539 1538 1537 1537 1535
1446 1449 1452 1455 1458 1462 1465 1469 1474 1478 1482 1487 1492 1496 1501 1504 1507 1510 1513 1517 1520 1523 1526 1528 1531 1533 1534 1535 1537 1538 1539 1540 1540 1541 1542 1542 1540 1539 1537 1536 1535 1534 1533
1438 1441 1444 1447 1450 1454 1458 1463 1467 1471 1475 1480 1484 1488 1491 1495 1499 1504 1508 1512 1515 1518 1521 1524 1527 1529 1530 1532 1533 1535 1536 1537 1537 1538 1538 1538 1538 1537 1536 1534 1532 1531 1530
1429 1432 1435 1439 1442 1447 1451 1455 1460 1464 1468 1473 1477 1481 1486 1491 1495 1499 1503 1507 1510 1513 1517 1520 1522 1524 1526 1528 1530 1531 1532 1533 1534 1534 1534 1534 1534 1533 1533 1531 1530 1528 1526
1421 1424 1428 1431 1435 1439 1443 1448 1452 1456 1461 1466 1470 1475 1480 1485 1489 1493 1497 1501 1504 1508 1511 1514 1517 1520 1522 1524 1526 1527 1528 1529 1530 1530 1530 1530 1530 1530 1529 1528 1526 1525 1523
1414 1417 1420 1424 1427 1431 1436 1440 1445 1450 1454 1459 1464 1468 1474 1479 1483 1487 1491 1495 1498 1502 1505 1509 1512 1514 1517 1519 1521 1523 1524 1525 1526 1526 1526 1526 1526 1526 1525 1524 1522 1520 1518
1407 1410 1413 1417 1421 1425 1429 1434 1438 1443 1448 1453 1458 1463 1468 1473 1477 1482 1486 1490 1493 1497 1500 1503 1507 1510 1512 1514 1516 1518 1519 1520 1521 1522 1522 1522 1522 1521 1520 1520 1519 1516 1514
1401 1404 1408 1412 1415 1419 1423 1428 1433 1438 1442 1447 1452 1457 1462 1467 1472 1476 1481 1485 1488 1492 1495 1498 1502 1505 1507 1510 1512 1513 1514 1516 1516 1517 1517 1517 1517 1516 1516 1515 1514 1513 1509
1396 1399 1403 1406 1410 1414 1419 1423 1428 1432 1437 1442 1447 1452 1457 1462 1467 1472 1476 1480 1483 1487 1490 1493 1497 1500 1502 1505 1507 1509 1510 1511 1511 1512 1512 1512 1512 1511 1511 1510 1509 1507 1505
1391 1395 1398 1402 1406 1410 1414 1419 1423 1428 1433 1438 1443 1448 1453 1457 1462 1467 1471 1475 1479 1482 1486 1489 1492 1495 1497 1500 1502 1504 1505 1506 1506 1507 1507 1507 1507 1506 1506 1505 1504 1502 1500
1388 1391 1395 1398 1402 1406 1411 1415 1420 1424 1429 1434 1439 1444 1448 1453 1457 1462 1466 1471 1474 1478 1481 1485 1488 1490 1493 1495 1497 1499 1500 1501 1501 1502 1502 1502 1502 1501 1501 1500 1499 1497 1495
1384 1388 1392 1395 1399 1403 1408 1412 1416 1421 1426 1430 1435 1440 1444 1448 1453 1458 1462 1466 1470 1474 1477 1480 1483 1486 1488 1491 1492 1494 1495 1496 1497 1497 1497 1497 1497 1496 1496 1495 1494 1492 1490
1382 1385 1389 1393 1397 1401 1405 1409 1414 1418 1422 1427 1431 1436 1440 1445 1450 1454 1458 1462 1466 1470 1473 1476 1479 1482 1484 1486 1488 1489 1490 1491 1492 1492 1493 1492 1492 1492 1491 1490 1488 1487 1484
1380 1383 1386 1390 1394 1399 1403 1407 1411 1415 1420 1424 1428 1433 1438 1442 1447 1451 1455 1459 1463 1466 1469 1473 1475 1478 1480 1482 1484 1485 1486 1487 1487 1488 1488 1488 1487 1487 1486 1485 1483 1481 1479
1377 1381 1384 1388 1392 1396 1400 1404 1408 1413 1417 1421 1426 1430 1435 1439 1444 1448 1452 1456 1459 1463 1466 1469 1471 1474 1476 1478 1480 1481 1482 1483 1483 1483 1483 1483 1482 1482 1481 1480 1478 1476 1474
1375 1378 1382 1385 1389 1393 1397 1402 1406 1410 1414 1419 1423 1428 1432 1436 1441 1445 1449 1453 1456 1460 1463 1466 1468 1470 1472 1474 1476 1477 1478 1478 1479 1479 1479 1479 1478 1477 1476 1474 1472 1470 1469
1372 1375 1379 1383 1387 1391 1395 1399 1404 1408 1412 1416 1420 1425 1429 1433 1438 1442 1446 1450 1453 1457 1460 1463 1465 1467 1469 1471 1472 1473 1474 1475 1475 1475 1475 1475 1473 1472 1471 1469 1467 1465 1463
1370 1373 1376 1379 1383 1387 1391 1396 1400 1405 1409 1413 1417 1421 1426 1430 1435 1439 1443 1447 1451 1454 1457 1460 1463 1465 1466 1468 1469 1470 1471 1471 1471 1471 1471 1470 1469 1468 1466 1464 1462 1460 1458
1366 1369 1372 1375 1379 1383 1387 1392 1396 1401 1405 1409 1414 1419 1423 1428 1432 1437 1441 1445 1448 1452 1455 1458 1460 1462 1463 1464 1466 1466 1467 1468 1468 1468 1467 1466 1465 1464 1462 1460 1458 1455 1453
1361 1364 1367 1370 1374 1378 1383 1388 1392 1397 1402 1407 1412 1416 1421 1426 1430 1434 1438 1442 1446 1449 1452 1455 1457 1459 1460 1461 1463 1463 1464 1464 1464 1464 1463 1462 1461 1459 1457 1456 1454 1451 1449
1355 1358 1362 1365 1370 1374 1378 1383 1388 1393 1398 1404 1409 1414 1418 1423 1428 1432 1436 1440 1443 1447 1449 1452 1454 1456 1457 1459 1459 1460 1461 1461 1461 1460 1459 1458 1457 1455 1454 1452 1450 1448 1445
1350 1353 1356 1360 1364 1369 1373 1378 1383 1389 1394 1400 1405 1411 1416 1421 1425 1430 1433 1437 1441 1444 1446 1449 1451 1453 1455 1456 1457 1457 1457 1457 1457 1457 1456 1455 1453 1452 1450 1448 1446 1444 1441
1343 1346 1349 1353 1358 1363 1369 1374 1379 1385 1391 1396 1402 1408 1413 1418 1423 1428 1432 1435 1438 1441 1444 1446 1448 1450 1452 1453 1453 1454 1454 1454 1454 1453 1452 1451 1450 1448 1447 1445 1442 1440 1438
1336 1340 1343 1348 1352 1358 1363 1369 1375 1381 1387 1393 1399 1405 1411 1416 1420 1425 1429 1433 1436 1439 1442 1444 1446 1447 1449 1450 1451 1451 1451 1451 1451 1450 1449 1448 1447 1445 1444 1442 1439 1437 1435
1330 1333 1338 1342 1347 1353 1359 1365 1372 1378 1383 1389 1396 1402 1407 1413 1418 1422 1427 1431 1435 1437 1440 1442 1444 1445 1447 1447 1447 1448 1448 1448 1448 1447 1446 1445 1444 1442 1441 1439 1437 1434 1432